Location: �clusier
(49.9361°N, 2.7869°E)
Time: 18:56:07
(UTC+00:00)

Cosmos 1452 Rocket - Pass Details

Date: 31 October 2021
Orbit: 767 x 775 km, 74.1° (Epoch: 04 December)

Event Time Altitude Azimuth Distance (km) Brightness Sun altitude
Rises 19:29:43 0° 204° (SSW) 3,236 6.9 -29.7°
Reaches altitude 10° 19:32:05 10° 205° (SSW) 2,314 6.1 -30.1°
Enters shadow 19:33:37 20° 206° (SSW) 1,734 5.4 -30.3°
